|
NORAD ID: 25774 Int'l Code: 1999-031E
Perigee: 813.4 km
Apogee: 1,372.8 km
Inclination: 51.5 °
Period: 107.0 minutes
Semi major axis: 7464 km
Launch date: June 10, 1999
Source: United States (US)
Note: This is a ROCKET BODY
Two Line Element Set (TLE):
1 25774U 99031E 13144.40049782 -.00000089 00000-0 42727-4 0 2856
2 25774 051.5300 093.9817 0374712 261.7442 254.0028 13.46283984686445
Source:
NASA's NSSDC Master Catalog entry for DELTA 2 R/B
|